This is the latest recevied weather packets stored in our database for station/object KC3JUG-13. If no packets are shown the sender has not sent any weather packets the latest 10 day(s).
| Time | Temp. | Humidity | Pressure | Rain* | Wind** | Luminosity | Snow |
|---|---|---|---|---|---|---|---|
| 1787839661 | 22.22° C | 94% | 1017.8 hPa | 0 mm | - | - | - |
| 1787838881 | 21.67° C | 94% | 1017.7 hPa | 0 mm | - | - | - |
| 1787838101 | 21.67° C | 94% | 1017.7 hPa | 0 mm | - | - | - |
| 1787837321 | 21.67° C | 94% | 1017.8 hPa | 0 mm | - | - | - |
| 1787836541 | 21.67° C | 94% | 1017.9 hPa | 0 mm | - | - | - |
| 1787835761 | 21.67° C | 93% | 1017.8 hPa | 0 mm | - | - | - |
| 1787834981 | 21.67° C | 94% | 1017.9 hPa | 0 mm | - | - | - |
| 1787834201 | 21.11° C | 94% | 1017.8 hPa | 0 mm | - | - | - |
| 1787833421 | 21.11° C | 94% | 1017.9 hPa | 0 mm | - | - | - |
| 1787832641 | 21.11° C | 93% | 1017.7 hPa | 0 mm | - | - | - |
| 1787831861 | 20.56° C | 93% | 1017.6 hPa | 0 mm | - | - | - |
| 1787831081 | 20.56° C | 93% | 1017.6 hPa | 0 mm | - | - | - |
| 1787830301 | 20.56° C | 93% | 1017.5 hPa | 0 mm | - | - | - |
| 1787829521 | 20° C | 93% | 1017.7 hPa | 0 mm | - | - | - |
| 1787828741 | 20° C | 92% | 1017.7 hPa | 0 mm | - | - | - |
| 1787827961 | 20° C | 91% | 1017.6 hPa | 0 mm | - | - | - |
| 1787827181 | 20° C | 91% | 1017.7 hPa | 0 mm | - | - | - |
| 1787826401 | 20.56° C | 91% | 1017.8 hPa | 0 mm | - | - | - |
| 1787825621 | 20.56° C | 90% | 1017.6 hPa | 0 mm | - | - | - |
| 1787824841 | 20.56° C | 89% | 1017.8 hPa | 0 mm | - | - | - |
| 1787824061 | 20.56° C | 89% | 1017.8 hPa | 0 mm | - | - | - |
| 1787823281 | 20.56° C | 88% | 1017.7 hPa | 0 mm | - | - | - |
| 1787822501 | 20.56° C | 88% | 1017.5 hPa | 0 mm | - | - | - |
| 1787821721 | 20.56° C | 88% | 1017.5 hPa | 0 mm | - | - | - |
| 1787820941 | 20.56° C | 87% | 1017.5 hPa | 0 mm | - | - | - |
* Rain latest hour (hover to see other rain measurements)
** Current wind speed in m/s (hover to see current wind gust speed)